Location: Rodanthe
(35.5920°N, 75.4670°W)
Time: 00:29:35
(UTC-04:00)

Daily predictions for brighter satellites

Satellite Brightness Start Highest point End
(mag) Time Altitude Azimuth Time Altitude Azimuth Time Altitude Azimuth
ALOS 2 4.2 00:06:37 30° NE 00:06:37 30° NE 00:09:22 10° N
Cosmos 2333 Rocket 2.3 00:01:54 10° NNW 00:07:11 68° WNW 00:07:11 68° WNW
SL-16 R/B 2.8 00:08:22 10° N 00:13:40 47° ENE 00:13:40 47° ENE
Lacrosse 4 Rocket 3.3 00:11:37 10° N 00:14:35 27° NE 00:14:35 27° NE
Cosmos 2074 Rocket 4.1 00:22:07 63° ENE 00:22:07 63° ENE 00:27:58 10° NNE
Cosmos 2297 Rocket 2.8 00:25:45 48° WNW 00:26:03 49° WNW 00:31:32 10° N
ASTEX 1 4.5 00:21:42 10° NNE 00:24:59 38° NE 00:24:59 38° NE
Meteor 1-26 Rocket 4.4 00:22:31 10° N 00:27:25 67° NNE 00:27:25 67° NNE
H-2A R/B 4.1 00:28:11 10° N 00:30:32 33° N 00:30:32 33° N
GEOS 3 Rocket 4.0 00:35:40 60° NW 00:35:40 60° NW 00:39:53 10° NNW
ATLAS 2AS CENTAUR R/B 3.5 00:32:38 33° WSW 00:35:53 54° NW 00:43:44 10° NNE
Cosmos 2219 Rocket 3.7 00:34:50 10° NW 00:38:24 25° W 00:38:24 25° W
COSMOS 2455 2.9 00:36:35 10° NNW 00:42:07 73° N 00:42:07 73° N
CZ-2C R/B 3.8 00:38:43 10° NNE 00:42:07 33° ENE 00:42:07 33° ENE
MOS 1-B Rocket 4.4 00:47:44 48° ENE 00:47:44 48° ENE 00:53:01 10° N
Meteor 2-10 Rocket 4.3 00:43:02 10° N 00:47:49 49° NE 00:47:49 49° NE
Meteor 2-3 Rocket 4.1 00:57:41 62° NW 00:57:41 62° NW 01:02:46 10° N
Cosmos 2184 Rocket 4.1 00:59:55 64° WNW 00:59:55 64° WNW 01:05:51 10° N
ATLAS 3B R/B 2.5 00:55:38 10° NNW 01:02:13 80° WNW 01:02:13 80° WNW
USA 238 DEB 4.4 00:57:34 10° NNW 01:04:22 49° NE 01:06:14 40° E
USA 238 4.4 00:57:41 10° NNW 01:04:28 49° NE 01:06:22 39° E
Cosmos 2237 Rocket 3.9 01:01:59 10° NW 01:05:04 22° W 01:05:04 22° W
FALCON 9 R/B 3.6 01:01:45 10° W 01:09:34 37° W 01:09:34 37° W
Cosmos 44 4.5 01:14:57 41° NE 01:14:57 41° NE 01:18:37 10° NE
Cosmos 2341 Rocket 4.2 01:16:06 65° ENE 01:16:06 65° ENE 01:22:10 10° NNE
H-2A ROCKET BODY 3.8 00:49:19 10° W 01:23:10 55° SSW 01:23:23 55° SSW
Cosmos 962 Rocket 4.4 01:32:22 80° NNE 01:32:22 80° NNE 01:38:07 10° N
SL-8 Rocket 4.2 01:40:17 60° E 01:40:18 60° E 01:46:31 10° NNE
Cosmos 2218 Rocket 4.4 01:43:58 52° E 01:44:07 52° E 01:50:12 10° NNE
Cosmos 2263 Rocket 2.7 01:51:58 50° E 01:51:58 50° E 01:56:48 10° NNE
Lacrosse 4 Rocket 4.2 01:50:35 10° NW 01:50:55 12° WNW 01:50:55 12° WNW
NOSS 3-4 (A) 3.4 01:57:31 75° ESE 01:57:31 75° ESE 02:03:55 10° NE
NOSS 3-4 (C) 3.5 01:57:37 74° ESE 01:57:37 74° ESE 02:04:01 10° NE
SL-16 R/B 4.2 01:53:30 10° NW 01:55:32 17° WNW 01:55:32 17° WNW
Meteor 1-27 Rocket 3.8 01:52:03 10° N 01:57:22 73° NW 01:57:22 73° NW
Meteor 2-13 Rocket 4.3 02:00:36 82° NW 02:00:36 82° NW 02:06:37 10° N
Cosmos 2366 rocket 4.1 02:01:51 63° ESE 02:02:04 63° E 02:08:10 10° NNE
Okean 2 Rocket 4.0 02:10:09 47° N 02:10:09 47° N 02:13:23 10° N
CZ-2C R/B 3.8 02:11:35 49° WNW 02:11:35 49° WNW 02:16:22 10° NNW
Cosmos 909 Rocket 4.2 02:19:10 57° SE 02:19:39 59° ESE 02:26:28 10° NE
CZ-4C R/B 2.9 02:15:26 10° NNW 02:22:43 80° ENE 02:26:09 37° SE
CZ-2C R/B 4.3 02:19:44 10° NNW 02:23:34 21° WNW 02:23:38 21° WNW
Cosmos 1943 3.1 02:18:05 10° NNW 02:23:35 84° NW 02:23:35 84° NW
Cosmos 1727 Rocket 4.0 02:19:31 10° N 02:25:45 72° E 02:26:42 62° SE
IRS-P3 4.3 02:21:40 10° NNE 02:26:59 61° E 02:27:02 61° ESE
Cosmos 864 Rocket 4.3 02:27:04 78° SSW 02:27:29 84° W 02:33:41 10° N
Cosmos 1867 4.1 02:35:48 10° NNW 02:41:12 58° ENE 02:43:21 35° ESE
PSLV R/B 4.5 02:37:27 10° N 02:40:32 40° NNW 02:40:32 40° NNW
Resurs 1-4 Rocket 4.3 02:39:35 10° NE 02:42:52 16° E 02:45:17 13° ESE
CRYOSAT 2 4.5 02:38:06 10° N 02:42:30 67° NW 02:42:30 67° NW
Cosmos 1242 Rocket 4.2 02:45:04 10° N 02:47:00 31° N 02:47:00 31° N
Cosmos 1607 4.5 02:43:44 10° NW 02:48:31 41° W 02:48:31 41° W
Cosmos 1624 Rocket 3.9 02:52:41 73° W 02:52:49 73° WNW 02:58:03 10° NNE
Cosmos 1536 Rocket 3.6 02:52:22 10° N 02:56:22 74° N 02:56:22 74° N
IRAS Rocket 4.1 02:53:21 10° N 02:58:52 75° WNW 02:59:36 65° SW
Meteor 1-20 Rocket 4.3 03:01:49 55° S 03:03:08 79° E 03:08:58 10° N
NPP 3.6 03:00:47 10° N 03:06:09 68° WNW 03:06:52 60° WSW
SL-16 R/B 4.0 03:00:46 10° SE 03:06:18 35° ENE 03:11:50 10° N
Cosmos 2151 Rocket 4.4 03:07:47 40° WNW 03:07:47 40° WNW 03:11:28 10° N
ADEOS 3.6 03:05:08 10° NNE 03:10:22 75° ESE 03:11:28 55° S
USA 234 3.1 03:04:23 10° SE 03:10:54 75° SW 03:17:27 10° NW
BREEZE-M TANK 3.9 03:08:23 10° NW 03:10:56 26° NNE 03:13:17 10° E
Okean 1 3.7 03:08:28 10° N 03:12:25 58° E 03:12:40 57° ESE
Iridium 4 Rocket 3.7 03:08:09 10° NNW 03:12:32 49° W 03:12:32 49° W
Okean 1-7 Rocket 4.3 03:09:29 10° N 03:13:56 51° E 03:15:29 35° SE
Cosmos 1452 Rocket 3.7 03:12:59 50° SSE 03:14:08 65° ESE 03:19:21 10° NNE
RESURS DK-1 3.6 03:14:33 32° NW 03:14:33 32° NW 03:18:05 10° N
Cosmos 1812 2.8 03:10:54 10° N 03:14:39 73° ENE 03:14:39 73° ENE
Abrixas rocket 3.7 03:15:16 33° NNW 03:15:16 33° NNW 03:18:00 10° NE
ARIANE 5 R/B 3.1 03:11:48 10° NNE 03:16:37 47° E 03:18:19 34° SSE
ERS-2 3.0 03:16:30 10° N 03:19:28 41° NW 03:19:28 41° NW
Okean 1 Rocket 2.9 03:23:13 72° SSW 03:23:38 86° W 03:28:07 10° N
CBERS-1 4.3 03:19:28 10° N 03:24:27 53° WNW 03:25:21 47° WSW
Okean O Rocket 4.1 03:24:50 10° ENE 03:27:14 14° E 03:29:36 10° SE
Cosmos 1821 Rocket 4.0 03:26:36 39° S 03:29:14 87° W 03:35:40 10° N
NOSS 3-2 (C) 4.1 03:21:46 10° NW 03:29:14 57° WSW 03:34:29 22° S
CENTAUR R/B 4.0 03:23:46 10° NNW 03:31:22 49° NE 03:39:19 10° SE
CZ-2D R/B 2.9 03:26:14 10° NNE 03:31:30 49° E 03:34:28 25° SSE
Cosmos 1844 Rocket 2.6 03:31:31 43° SSW 03:33:28 83° ESE 03:39:10 10° NNE
Cosmos 2123 Rocket 4.5 03:28:00 10° N 03:34:15 60° E 03:40:00 12° SSE
Cosmos 1844 4.0 03:32:22 34° S 03:34:42 62° ESE 03:40:21 10° NNE
Cosmos 2263 Rocket 3.9 03:33:39 17° W 03:35:31 20° WNW 03:39:39 10° N
TIMED 4.5 03:35:42 54° S 03:36:37 78° ESE 03:41:00 10° NNE
GP-B 3.3 03:32:23 10° N 03:36:42 50° W 03:37:07 49° WSW
OAO 2 Rocket 3.8 03:40:59 41° S 03:40:59 41° S 03:45:15 10° SE
Chunghua 1 4.3 03:41:33 77° SW 03:41:43 80° S 03:45:28 10° E
SL-08 R/B 4.1 03:41:41 35° W 03:41:48 35° W 03:46:19 10° NNW
COSMOS 2406 3.1 03:37:10 10° NNW 03:42:57 80° WSW 03:47:22 18° SSE
Cosmos 1190 Rocket 4.2 03:41:00 10° NNW 03:46:02 50° WSW 03:47:22 40° SSW
Meteor 2-14 Rocket 4.3 03:46:33 30° S 03:49:45 85° W 03:55:50 10° N
Cosmos 2278 Rocket 2.7 03:46:40 24° S 03:49:52 54° ESE 03:55:23 10° NNE
Cosmos 1461 4.0 03:49:34 27° SSE 03:51:39 44° ESE 03:56:06 10° NE
Meteor 2-21 Rocket 4.4 03:49:46 32° SSW 03:52:39 69° W 03:58:44 10° N
UNK 3.8 03:51:53 17° SSE 03:55:23 77° ENE 04:00:02 10° N
Cosmos 1602 3.7 03:55:28 49° SW 03:56:18 66° W 04:00:09 10° N
NOSS 2-2 (D) 3.4 03:55:43 42° SSW 03:57:05 82° ESE 04:01:39 10° NNE
Cosmos 1140 Rocket 4.1 03:52:20 10° N 03:57:23 55° ENE 04:02:23 10° SSE
Tiangong 1 1.1 03:59:17 26° NW 04:00:51 74° NNE 04:03:55 10° ESE
Cosmos 1025 Rocket 3.0 03:58:34 10° N 04:02:53 84° E 04:05:55 19° S
Cosmos 407 Rocket 3.9 03:58:56 10° NNW 04:03:47 42° WSW 04:05:49 29° SSW
Meteor 2-15 4.4 03:58:02 10° N 04:04:12 83° W 04:09:52 12° S
Cosmos 1536 2.8 04:04:07 35° SSW 04:05:45 75° W 04:09:50 10° N
CZ-4B R/B 4.4 04:03:49 10° NNE 04:09:07 40° E 04:14:23 10° SSE
Cosmos 676 Rocket 4.1 04:04:14 10° NNW 04:09:16 52° WSW 04:12:41 20° S
Meteor 2-4 Rocket 3.9 04:04:46 10° N 04:10:10 69° E 04:15:29 10° SSE
CZ-4C R/B 4.1 04:05:43 10° WNW 04:10:47 20° WSW 04:11:13 20° WSW
NOSS 2-2 (C) 3.5 04:09:51 33° SW 04:11:35 68° WNW 04:16:09 10° NNE
SL-27 R/B 3.3 04:10:24 10° NW 04:13:40 31° WSW 04:13:49 31° WSW
USA 161 3.7 04:16:07 14° WNW 04:16:07 14° WNW 04:16:59 10° NW
Cosmos 1544 Rocket 3.5 04:13:14 22° S 04:16:03 86° W 04:20:28 10° N
IRS-1D 4.0 04:13:29 10° N 04:18:19 44° WNW 04:20:59 23° SW
Gbstr 26 Del rocket 3.5 04:16:43 23° W 04:18:43 41° NW 04:22:16 10° NE
Cosmos 724 4.4 04:14:26 10° NW 04:20:28 59° WSW 04:26:32 10° SSE
UNKNOWN OBJECT B 2.9 04:16:36 10° N 04:20:41 68° WNW 04:23:04 24° SSW
Resurs 1-4 Rocket 2.4 04:17:49 10° N 04:22:58 52° WNW 04:26:22 21° SW
OTV 4 0.4 04:22:22 33° W 04:23:22 55° SSW 04:26:15 10° ESE
PSLV R/B 4.2 04:20:10 10° NNE 04:24:19 65° E 04:27:55 13° S
H-2A R/B 4.5 04:18:33 18° WSW 04:24:59 34° S 05:09:29 10° SE
IRS-1C Rocket 4.1 04:21:55 10° NNE 04:27:12 83° ESE 04:32:05 12° SSW
Meteor 1-19 Rocket 4.5 04:25:30 10° NNW 04:31:08 53° W 04:36:47 10° S
Timation 2 Rocket 4.5 04:30:50 10° NNW 04:36:54 62° ENE 04:42:48 10° SE
Skynet4D Del rocket 4.3 04:34:28 19° SW 04:37:37 34° S 04:42:44 10° ESE
EO 1 Del DPAF 4.3 04:36:38 20° SW 04:38:17 27° W 04:41:38 10° NW
Cosmos 1633 3.6 04:37:17 21° WSW 04:38:51 29° W 04:42:02 10° NNW
Cosmos 1892 Rocket 3.7 04:36:11 10° NNW 04:40:25 53° W 04:44:37 10° S
Cosmos 2061 Rocket 4.1 04:36:00 10° S 04:42:16 82° E 04:48:40 10° N
SME Rocket 3.6 04:40:12 14° SSW 04:42:57 32° W 04:46:25 10° NW
ASTRO F (AKARI) 4.3 04:41:29 10° S 04:44:44 82° WSW 04:48:12 10° NNW
Cosmos 1447 Rocket 4.5 04:39:00 10° NNW 04:45:05 63° W 04:51:06 10° S
Okean-O 3.9 04:44:30 10° NNE 04:48:41 39° E 04:52:49 10° SSE
USA 129 2.4 04:48:31 21° SSW 04:49:29 33° W 04:51:28 10° NNW
SL-16 R/B 3.2 04:44:17 10° SSW 04:49:49 33° W 04:55:23 10° NW
ADEOS II 3.9 04:46:20 10° NE 04:50:57 31° E 04:55:33 10° SSE
Cosmos 1400 Rocket 3.8 04:49:37 15° SW 04:52:04 28° WNW 04:55:29 10° NNW
CZ-2C R/B 3.8 04:48:46 10° S 04:53:26 65° WSW 04:58:11 10° NNW
ARIANE 5 R/B 4.2 04:52:09 10° NNW 04:55:21 17° WNW 04:58:33 10° WSW
Hubble Space Telescope 2.8 04:58:17 11° SSW 04:59:04 11° SSW 05:00:28 10° S
Thor Agena Rocket 3.5 04:54:40 10° SSE 04:59:52 81° WSW 05:05:03 10° NNW
Cosmos 1833 Rocket 4.3 04:54:52 10° N 05:00:07 39° ENE 05:05:19 10° SE
Cosmos 614 Rocket 4.0 04:55:46 10° NNW 05:00:49 56° WSW 05:05:48 10° S
Yuri Rocket 4.0 04:56:54 11° WSW 05:01:26 34° S 05:05:22 10° ESE
COSMOS 2487 3.4 04:58:24 10° NW 05:01:35 29° W 05:04:45 10° SSW
Cosmos 1110 Rocket 4.0 04:57:11 10° SSW 05:02:30 82° WNW 05:07:49 10° NNE
CZ-4B R/B 3.2 04:58:41 10° N 05:03:14 71° WNW 05:07:40 10° SSW
Okean O Rocket 2.2 04:59:41 10° N 05:03:45 40° WNW 05:07:49 10° SW
PAYLOAD B 4.5 05:02:36 10° N 05:08:04 57° WNW 05:13:31 10° SSW
CZ-2D R/B 3.7 05:07:22 10° NNW 05:11:10 20° WNW 05:14:59 10° WSW
Cosmos 1602 Rocket 3.5 05:07:57 10° NNW 05:12:16 70° W 05:16:35 10° S
Meteor 1-12 Rocket 4.4 05:08:33 10° SSW 05:14:25 65° W 05:20:13 10° N
Cosmos 1315 Rocket 4.0 05:12:50 10° SW 05:16:19 26° WNW 05:19:47 10° NNW
CENTAUR R/B 3.6 05:14:45 10° NW 05:22:01 39° WSW 05:29:30 10° S
CZ-3A R/B 4.3 05:19:49 10° SW 05:43:11 80° SE 05:48:28 10° NE
